Weather History for KLGB - December, 2011

Change the Weather History Date:

Wednesday, December 28, 2011

  Actual Average Record
Temperature  
Mean Temperature 58 °F 56 °F  
Max Temperature 76 °F 67 °F 84 °F (1963)
Min Temperature 40 °F 46 °F 32 °F (1962)
Degree Days  
Heating Degree Days 7 9  
Month to date heating degree days 298 243  
Since 1 July heating degree days 485 392  
Cooling Degree Days 0 0  
Month to date cooling degree days 0 0  
Year to date cooling degree days 891 1125  
Growing Degree Days 8 (Base 50)    
Moisture  
Dew Point 37 °F    
Average Humidity 52    
Maximum Humidity 89    
Minimum Humidity 15    
Precipitation  
Precipitation 0.00 in 0.08 in 1.90 in (2004)
Month to date precipitation 1.28 1.71  
Year to date precipitation 9.30 12.02  
Since 1 July precipitation 3.16 3.58  
Sea Level Pressure  
Sea Level Pressure 30.16 in    
Wind  
Wind Speed 2 mph (NW)    
Max Wind Speed 14 mph    
Max Gust Speed 16 mph    
Visibility 9 miles    
Events      
T = Trace of Precipitation, MM = Missing Value Source: NWS Daily Summary

Daily Weather History Graph

Daily Weather History Graph

Search for Another Location

Airport or City:

Trip Planner

Search our weather history database for the weather conditions in past years. The results will help you decide how hot, cold, wet, or windy it might be!

Date:

Astronomy

Dec. 28, 2011 Rise Set
Actual Time 6:56 AM PST 4:51 PM PST
Civil Twilight 6:28 AM PST 5:19 PM PST
Nautical Twilight 5:57 AM PST 5:50 PM PST
Astronomical Twilight 5:27 AM PST 6:21 PM PST
Moon 9:36 AM PST (12/28) 9:19 PM PST (12/28)
Length of Visible Light 10h 50m
Length of Day
9h 55m
Waxing Crescent, 19% of the Moon is Illuminated
Dec 28
Waxing Crescent
Dec 31
First Quarter
Jan 8
Full
Jan 16
Last Quarter
Jan 22
New

Hourly Weather History & Observations

Time (PST) Temp. Windchill Dew Point Humidity Pressure Visibility Wind Dir Wind Speed Gust Speed Precip Events Conditions
12:53 AM 46.0 °F - 42.1 °F 86% 30.20 in 6.0 mi Calm Calm - N/A   Clear
1:53 AM 45.0 °F - 41.0 °F 86% 30.19 in 6.0 mi Calm Calm - N/A   Clear
2:53 AM 44.1 °F 42.5 °F 41.0 °F 89% 30.19 in 6.0 mi NW 3.5 mph - N/A   Clear
3:53 AM 46.0 °F - 39.0 °F 76% 30.19 in 7.0 mi Calm Calm - N/A   Clear
4:53 AM 43.0 °F - 36.0 °F 76% 30.20 in 7.0 mi Calm Calm - N/A   Clear
5:53 AM 43.0 °F - 37.0 °F 80% 30.20 in 8.0 mi Calm Calm - N/A   Clear
6:53 AM 41.0 °F - 36.0 °F 82% 30.21 in 6.0 mi Calm Calm - N/A   Haze
7:53 AM 44.1 °F - 37.0 °F 76% 30.22 in 10.0 mi Calm Calm - N/A   Clear
8:53 AM 50.0 °F - 39.9 °F 68% 30.23 in 6.0 mi NW 3.5 mph - N/A   Clear
9:53 AM 60.1 °F - 34.0 °F 38% 30.22 in 9.0 mi NNE 3.5 mph - N/A   Clear
10:53 AM 64.9 °F - 30.9 °F 28% 30.19 in 10.0 mi Calm Calm - N/A   Clear
11:53 AM 71.1 °F - 28.0 °F 20% 30.15 in 10.0 mi Calm Calm - N/A   Clear
12:53 PM 75.0 °F - 24.1 °F 15% 30.12 in 10.0 mi Calm Calm - N/A   Clear
1:53 PM 73.0 °F - 41.0 °F 31% 30.11 in 8.0 mi South 3.5 mph - N/A   Clear
2:53 PM 75.0 °F - 39.0 °F 27% 30.10 in 9.0 mi Calm Calm - N/A   Clear
3:53 PM 70.0 °F - 35.1 °F 28% 30.11 in 10.0 mi WNW 10.4 mph - N/A   Clear
4:53 PM 64.9 °F - 28.9 °F 26% 30.12 in 10.0 mi WNW 9.2 mph - N/A   Clear
5:53 PM 61.0 °F - 37.9 °F 42% 30.13 in 10.0 mi NNW 4.6 mph - N/A   Clear
6:53 PM 57.9 °F - 41.0 °F 53% 30.13 in 10.0 mi NNW 3.5 mph - N/A   Clear
7:53 PM 54.0 °F - 37.9 °F 55% 30.13 in 10.0 mi Calm Calm - N/A   Clear
8:53 PM 52.0 °F - 39.9 °F 63% 30.14 in 10.0 mi Calm Calm - N/A   Clear
9:53 PM 51.1 °F - 41.0 °F 68% 30.15 in 10.0 mi Calm Calm - N/A   Clear
10:53 PM 48.9 °F - 39.9 °F 71% 30.14 in 10.0 mi Calm Calm - N/A   Clear
11:53 PM 46.9 °F - 39.9 °F 77% 30.12 in 10.0 mi Calm Calm - N/A   Clear